TimePDT,TemperatureF,Dew PointF,Humidity,Sea Level PressureIn,VisibilityMPH,Wind Direction,Wind SpeedMPH,Gust SpeedMPH,PrecipitationIn,Events,Conditions,WindDirDegrees,DateUTC
12:53 AM,45.0,42.1,90,30.20,10.0,Calm,Calm,-,N/A,,Overcast,0,2012-10-25 07:53:00
1:53 AM,45.0,42.1,90,30.22,10.0,Calm,Calm,-,N/A,,Overcast,0,2012-10-25 08:53:00
2:53 AM,45.0,42.1,90,30.24,6.0,Calm,Calm,-,N/A,,Overcast,0,2012-10-25 09:53:00
3:53 AM,46.0,43.0,89,30.26,7.0,Calm,Calm,-,N/A,,Overcast,0,2012-10-25 10:53:00
4:18 AM,44.6,42.8,93,30.26,5.0,Calm,Calm,-,N/A,,Overcast,0,2012-10-25 11:18:00
4:46 AM,42.8,39.2,87,30.26,2.0,Calm,Calm,-,N/A,,Mostly Cloudy,0,2012-10-25 11:46:00
4:53 AM,43.0,39.9,89,30.27,1.2,Calm,Calm,-,N/A,,Mostly Cloudy,0,2012-10-25 11:53:00
4:59 AM,44.6,41.0,87,30.27,3.0,Calm,Calm,-,N/A,,Mostly Cloudy,0,2012-10-25 11:59:00
5:53 AM,45.0,42.1,90,30.30,6.0,Calm,Calm,-,N/A,,Overcast,0,2012-10-25 12:53:00
6:24 AM,44.6,42.8,93,30.31,6.0,Calm,Calm,-,N/A,,Overcast,0,2012-10-25 13:24:00
6:53 AM,45.0,42.1,90,30.32,6.0,Calm,Calm,-,N/A,,Overcast,0,2012-10-25 13:53:00
7:15 AM,44.6,42.8,93,30.32,7.0,Calm,Calm,-,N/A,,Overcast,0,2012-10-25 14:15:00
7:23 AM,44.6,42.8,93,30.32,7.0,Calm,Calm,-,N/A,,Overcast,0,2012-10-25 14:23:00
7:35 AM,44.6,42.8,93,30.33,8.0,Calm,Calm,-,N/A,,Mostly Cloudy,0,2012-10-25 14:35:00
7:49 AM,42.8,41.0,93,30.33,6.0,Calm,Calm,-,N/A,,Mostly Cloudy,0,2012-10-25 14:49:00
7:53 AM,44.1,41.0,89,30.34,5.0,Calm,Calm,-,N/A,,Mostly Cloudy,0,2012-10-25 14:53:00
8:53 AM,45.0,43.0,93,30.37,8.0,Calm,Calm,-,N/A,,Mostly Cloudy,0,2012-10-25 15:53:00
10:53 AM,46.9,44.1,90,30.42,6.0,Calm,Calm,-,N/A,,Overcast,0,2012-10-25 17:53:00
11:33 AM,48.2,42.8,82,30.41,7.0,Calm,Calm,-,N/A,,Overcast,0,2012-10-25 18:33:00
11:50 AM,46.4,42.8,87,30.42,7.0,West,3.5,-,N/A,,Overcast,260,2012-10-25 18:50:00
11:53 AM,46.9,43.0,86,30.43,7.0,WSW,3.5,-,N/A,,Overcast,240,2012-10-25 18:53:00
12:21 PM,46.4,42.8,87,30.42,5.0,Calm,Calm,-,0.00,Rain,Light Rain,0,2012-10-25 19:21:00
12:53 PM,48.9,43.0,80,30.43,9.0,Calm,Calm,-,0.00,,Overcast,0,2012-10-25 19:53:00
1:53 PM,48.9,42.1,77,30.42,10.0,Calm,Calm,-,N/A,,Mostly Cloudy,0,2012-10-25 20:53:00
2:53 PM,51.1,43.0,74,30.42,10.0,West,3.5,-,N/A,,Overcast,280,2012-10-25 21:53:00
3:53 PM,51.1,42.1,71,30.42,10.0,West,4.6,-,N/A,,Mostly Cloudy,280,2012-10-25 22:53:00
4:53 PM,50.0,43.0,77,30.41,10.0,Calm,Calm,-,N/A,,Partly Cloudy,0,2012-10-25 23:53:00
5:53 PM,48.9,43.0,80,30.41,10.0,Calm,Calm,-,N/A,,Partly Cloudy,0,2012-10-26 00:53:00
6:53 PM,48.0,43.0,83,30.40,10.0,NE,3.5,-,N/A,,Clear,40,2012-10-26 01:53:00
7:53 PM,48.0,43.0,83,30.39,8.0,Calm,Calm,-,N/A,,Clear,0,2012-10-26 02:53:00
8:53 PM,46.0,42.1,86,30.38,8.0,Calm,Calm,-,N/A,,Clear,0,2012-10-26 03:53:00
9:53 PM,48.0,43.0,83,30.37,8.0,Calm,Calm,-,N/A,,Clear,0,2012-10-26 04:53:00
11:53 PM,46.9,42.1,83,30.33,9.0,ENE,3.5,-,N/A,,Clear,70,2012-10-26 06:53:00